This is the latest recevied weather packets stored in our database for station/object K7DC. If no packets are shown the sender has not sent any weather packets the latest 10 day(s).
| Time | Temp. | Humidity | Pressure | Rain* | Wind** | Luminosity | Snow |
|---|---|---|---|---|---|---|---|
| 1776937282 | 16.11° C | 37% | 1014 hPa | 0 mm | - | 0 W/m² | - |
| 1776936979 | 16.67° C | 37% | 1014 hPa | 0 mm | - | 0 W/m² | - |
| 1776936675 | 16.67° C | 37% | 1013.9 hPa | 0 mm | - | 0 W/m² | - |
| 1776936374 | 17.22° C | 37% | 1014.1 hPa | 0 mm | - | 0 W/m² | - |
| 1776936071 | 17.78° C | 36% | 1013.8 hPa | 0 mm | - | 0 W/m² | - |
| 1776935769 | 17.78° C | 35% | 1013.8 hPa | 0 mm | - | 0 W/m² | - |
| 1776935464 | 17.22° C | 36% | 1013.7 hPa | 0 mm | - | 0 W/m² | - |
| 1776935161 | 16.67° C | 37% | 1013.7 hPa | 0 mm | - | 0 W/m² | - |
| 1776934857 | 15.56° C | 39% | 1013.5 hPa | 0 mm | - | 0 W/m² | - |
| 1776934555 | 15° C | 41% | 1013.7 hPa | 0 mm | - | 0 W/m² | - |
| 1776934252 | 14.44° C | 43% | 1013.9 hPa | 0 mm | - | 0 W/m² | - |
| 1776933949 | 14.44° C | 41% | 1014 hPa | 0 mm | - | 0 W/m² | - |
| 1776933645 | 15° C | 42% | 1014.1 hPa | 0 mm | - | 0 W/m² | - |
| 1776933342 | 14.44° C | 40% | 1014 hPa | 0 mm | - | 0 W/m² | - |
| 1776933039 | 14.44° C | 39% | 1014.1 hPa | 0 mm | - | 0 W/m² | - |
| 1776932733 | 14.44° C | 41% | 1014.1 hPa | 0 mm | - | 0 W/m² | - |
| 1776932431 | 15° C | 39% | 1014 hPa | 0 mm | - | 0 W/m² | - |
| 1776932128 | 15° C | 40% | 1013.9 hPa | 0 mm | - | 0 W/m² | - |
| 1776931825 | 15° C | 39% | 1014.1 hPa | 0 mm | - | 0 W/m² | - |
| 1776931523 | 15° C | 40% | 1014.2 hPa | 0 mm | - | 0 W/m² | - |
| 1776931221 | 15.56° C | 40% | 1014.3 hPa | 0 mm | - | 0 W/m² | - |
| 1776930918 | 15.56° C | 39% | 1014.3 hPa | 0 mm | - | 0 W/m² | - |
| 1776930614 | 16.11° C | 38% | 1014.2 hPa | 0 mm | - | 0 W/m² | - |
| 1776930310 | 16.67° C | 37% | 1014.5 hPa | 0 mm | - | 0 W/m² | - |
| 1776930007 | 16.67° C | 36% | 1014.6 hPa | 0 mm | - | 0 W/m² | - |
* Rain latest hour (hover to see other rain measurements)
** Current wind speed in m/s (hover to see current wind gust speed)